This demonstration page uses our WeatherBlox Daily Observations layout. Learn more.

Left ArrowRight Arrow

Hourly Observations for June 13, 2017

Temp ( °F °C ) Dew Point ( °F °C ) Humidity (%) Winds ( mph kmh ) Pressure ( in mb ) Visibility ( mi km ) Precip ( " mm )
12:56 am 00:56 Clear 78 25.4 69 20.4 74 74 SE 12 19 29.79 1009 10 16 0.00 0.00
1:56 am 01:56 Clear 78 25.7 68 20 71 71 SE 14 22 29.77 1008 10 16 0.00 0.00
2:56 am 02:56 Clear 78 25.6 68 19.9 71 71 SE 13 20 29.78 1008 10 16 0.00 0.00
3:56 am 03:56 Clear 76 24.7 67 19.7 74 74 SE 10 17 29.78 1008 10 16 0.00 0.00
4:56 am 04:56 Clear 76 24.4 68 20.1 77 77 SE 15 24 29.76 1008 10 16 0.00 0.00
5:56 am 05:56 Sunny 75 24 68 20.1 79 79 SSE 13 20 29.75 1008 10 16 0.00 0.00
6:56 am 06:56 Sunny 76 24.3 69 20.4 79 79 SSE 17 28 29.74 1007 10 16 0.00 0.00
7:56 am 07:56 Sunny 77 25.2 69 20.6 76 76 SSE 14 22 29.75 1008 10 16 0.00 0.00
8:56 am 08:56 Sunny 80 26.8 69 20.6 69 69 SSE 18 30 29.74 1007 10 16 0.00 0.00
9:56 am 09:56 Mostly Sunny 83 28.2 71 21.5 67 67 SSE 18 30 29.73 1007 10 16 0.00 0.00
10:56 am 10:56 Sunny 85 29.4 70 21.3 62 62 SSE 20 31 29.71 1006 10 16 0.00 0.00
11:56 am 11:56 Sunny 88 31.3 71 21.4 56 56 S 18 30 29.71 1006 10 16 0.00 0.00
12:56 pm 12:56 Mostly Sunny 90 32 70 21.2 53 53 SSE 20 31 29.69 1005 10 16 0.00 0.00
1:56 pm 13:56 Mostly Sunny 92 33.1 70 21.2 50 50 SSE 24 39 29.67 1005 10 16 0.00 0.00
2:56 pm 14:56 Mostly Sunny 92 33.1 71 21.6 51 51 SE 25 41 29.65 1004 10 16 0.00 0.00
3:56 pm 15:56 Mostly Sunny 93 34.1 71 21.5 48 48 SSE 26 43 29.65 1004 10 16 0.00 0.00
4:56 pm 16:56 Mostly Sunny 92 33.6 70 21 48 48 SSE 23 37 29.64 1004 10 16 0.00 0.00
5:56 pm 17:56 Mostly Sunny 92 33.5 71 21.6 50 50 SSE 20 31 29.63 1003 10 16 0.00 0.00
6:56 pm 18:56 Sunny 90 32.4 70 21.2 52 52 SSE 21 33 29.62 1003 10 16 0.00 0.00
7:56 pm 19:56 Sunny 88 31 70 20.9 55 55 SSE 21 33 29.61 1003 10 16 0.00 0.00
8:56 pm 20:56 Sunny 86 30 68 20.2 56 56 SSE 17 28 29.62 1003 10 16 0.00 0.00
9:56 pm 21:56 Clear 84 29.1 68 20.2 59 59 SSE 17 28 29.63 1003 10 16 0.00 0.00
10:44 pm 22:44 Mostly Cloudy 82 28 66 19 58 58 NNW 13 20 29.72 1006 10 16 0.00 0.00
10:56 pm 22:56 Cloudy 80 26.8 59 14.8 48 48 N 8 13 29.72 1006 10 16 0.00 0.00
10:57 pm 22:57 Cloudy with Drizzle 81 27 59 15 48 48 N 9 15 29.72 1006 10 16 0.00 0.00
11:11 pm 23:11 Cloudy 79 26 61 16 54 54 NW 13 20 29.73 1007 10 16 0.00 0.00
11:32 pm 23:32 Mostly Cloudy with Thunderstorms 79 26 59 15 51 51 ENE 7 11 29.73 1007 10 16 0.00 0.00
11:48 pm 23:48 Mostly Cloudy with Nearby Thunderstorms 77 25 57 14 51 51 NE 8 13 29.73 1007 10 16 0.00 0.00
11:56 pm 23:56 Partly Cloudy with Nearby Thunderstorms 76 24.6 58 14.4 53 53 NE 8 13 29.72 1006 10 16 0.00 0.03

Powered by AerisWeather